This is the latest recevied weather packets stored in our database for station/object N4DBJ. If no packets are shown the sender has not sent any weather packets the latest 10 day(s).
| Time | Temp. | Humidity | Pressure | Rain* | Wind** | Luminosity | Snow |
|---|---|---|---|---|---|---|---|
| 1777909116 | 23.33° C | 59% | 1010.8 hPa | 0 mm | - | 780 W/m² | - |
| 1777908813 | 22.78° C | 58% | 1010.7 hPa | 0 mm | - | 789 W/m² | - |
| 1777908509 | 21.67° C | 61% | 1010.7 hPa | 0 mm | - | 684 W/m² | - |
| 1777908206 | 22.22° C | 58% | 1010.9 hPa | 0 mm | - | 750 W/m² | - |
| 1777907902 | 22.22° C | 61% | 1010.9 hPa | 0 mm | - | 714 W/m² | - |
| 1777907598 | 21.67° C | 61% | 1011.1 hPa | 0 mm | - | 710 W/m² | - |
| 1777907294 | 21.67° C | 59% | 1011 hPa | 0 mm | - | 665 W/m² | - |
| 1777906991 | 21.11° C | 59% | 1011 hPa | 0 mm | - | 696 W/m² | - |
| 1777906689 | 21.67° C | 59% | 1011 hPa | 0 mm | - | 707 W/m² | - |
| 1777906385 | 21.67° C | 61% | 1011 hPa | 0 mm | - | 696 W/m² | - |
| 1777906081 | 21.67° C | 59% | 1011 hPa | 0 mm | - | 691 W/m² | - |
| 1777905777 | 21.11° C | 62% | 1011 hPa | 0 mm | - | 641 W/m² | - |
| 1777905475 | 21.11° C | 60% | 1011.1 hPa | 0 mm | - | 630 W/m² | - |
| 1777905172 | 20.56° C | 63% | 1011.1 hPa | 0 mm | - | 594 W/m² | - |
| 1777904870 | 20.56° C | 62% | 1011.2 hPa | 0 mm | - | 501 W/m² | - |
| 1777904566 | 20.56° C | 62% | 1011.4 hPa | 0 mm | - | 553 W/m² | - |
| 1777904263 | 20° C | 62% | 1011.2 hPa | 0 mm | - | 530 W/m² | - |
| 1777903961 | 19.44° C | 64% | 1011 hPa | 0 mm | - | 546 W/m² | - |
| 1777903657 | 19.44° C | 62% | 1011.1 hPa | 0 mm | - | 502 W/m² | - |
| 1777903353 | 19.44° C | 63% | 1011.3 hPa | 0 mm | - | 466 W/m² | - |
| 1777903050 | 18.89° C | 63% | 1011.2 hPa | 0 mm | - | 436 W/m² | - |
| 1777902746 | 18.89° C | 64% | 1011.4 hPa | 0 mm | - | 423 W/m² | - |
| 1777902444 | 18.89° C | 65% | 1011.5 hPa | 0 mm | - | 412 W/m² | - |
| 1777902140 | 18.33° C | 64% | 1011.5 hPa | 0 mm | - | 376 W/m² | - |
| 1777901839 | 17.78° C | 66% | 1011.5 hPa | 0 mm | - | 306 W/m² | - |
* Rain latest hour (hover to see other rain measurements)
** Current wind speed in m/s (hover to see current wind gust speed)